Regional Weather Roundup
Issued by NWS

Home | Current Version | Previous Version | Text Only | Print | Product List | Glossary Off
Versions: 1 2 3 4 5 6 7 8 9 10 11 12 13 14 15 16 17 18 19 20 21 22 23 24 25 26 27 28 29 30 31 32 33 34 35 36 37 38 39 40 41 42 43 44 45 46 47 48 49 50

000
ASUS43 KLOT 242110
RWRIL

ILLINOIS REGIONAL WEATHER ROUNDUP
NATIONAL WEATHER SERVICE CHICAGO/ROMEOVILLE IL
300 PM CST WED DEC 24 2014

NOTE: "FAIR" INDICATES FEW OR NO CLOUDS BELOW 12,000 FEET WITH NO
SIGNIFICANT WEATHER AND/OR OBSTRUCTIONS TO VISIBILITY.

* THESE STATIONS ARE NOT UNDER NWS QUALITY CONTROL. THEY ALSO MAY NOT
  REPORT WEATHER SUCH AS PRECIPITATION OR FOG.

ILZ001-002-007-009-015-016-024-242200-
NORTHWEST ILLINOIS

CITY           SKY/WX    TMP DP  RH WIND       PRES   REMARKS
MOLINE         CLOUDY    36  31  82 NW15      29.58S WCI  27
STERLING*      CLOUDY    36  32  87 NW13      29.56R WCI  27
SAVANNA*       DRIZZLE   36  32  85 NW8       29.56S WCI  30
$$

ILZ003-004-008-010-011-017-018-242200-
NORTH CENTRAL ILLINOIS

CITY           SKY/WX    TMP DP  RH WIND       PRES   REMARKS
ROCKFORD       LGT RAIN  37  33  85 W7        29.53S WCI  32
FREEPORT*      CLOUDY    34  32  94 NW12      29.55R FOG     WCI  25
ROCHELLE*      CLOUDY    35  34  96 W10       29.53R WCI  27
DE KALB*       CLOUDY    35  33  95 W9        29.51R FOG     WCI  27
PERU*          LGT RAIN  37  35  93 W15       29.55S WCI  28
$$

ILZ005-006-012>014-019>023-242200-
NORTHEAST ILLINOIS

CITY           SKY/WX    TMP DP  RH WIND       PRES   REMARKS
CHICAGO-OHARE  CLOUDY    39  33  79 W12       29.48R WCI  32
CHICAGO-MIDWAY CLOUDY    41  35  79 W9        29.49R
AURORA         CLOUDY    38  34  85 W12       29.51S FOG     WCI  30
LANSING*       LGT RAIN  38  36  92 W10       29.50R WCI  30
JOLIET*        CLOUDY    38  34  88 W7        29.52R WCI  32
WAUKEGAN       CLOUDY    38  33  82 W8        29.47S WCI  32
DUPAGE AIRPORT CLOUDY    37  35  92 W10       29.49S FOG     WCI  30
KANKAKEE*      LGT RAIN  38  37  96 W14G20    29.53R WCI  29
WHEELING       CLOUDY    39  33  79 W9        29.49S WCI  33
MORRIS*        DRIZZLE   37  36  94 W13       29.51S WCI  29
ROMEOVILLE*    CLOUDY    38  36  92 W10       29.51R WCI  30
NORTHERLY ISL    N/A     40  33  76 W7          N/A
$$

LMZ740>746-242200-
SOUTHERN LAKE MICHIGAN

STATION/POSITION SKY/WX   TEMP    WIND        PRES    VSBY  WAVE
                          AIR SEA DIR/SP/G                  HT/PER
                          (F)     (DEG/KT/KT) (MB)    (MI)  (FT/S)
WAUKEGAN HARBOR            39                   N/A
HARRISON CRIB              40     280/ 12/ 15   N/A
BURNHAM HARBOR             40     260/  6/ 10   N/A
CALUMET HARBOR             39     260/  6/ 11  997.5R
MICHIGAN CITY              37     260/ 14/ 16   N/A
$$

ILZ025>027-034>036-040-047-049-050-058-095>099-242200-
WEST-CENTRAL ILLINOIS

CITY           SKY/WX    TMP DP  RH WIND       PRES   REMARKS
QUINCY         CLOUDY    36  32  85 W13       29.66R WCI  27
GALESBURG*     DRIZZLE   35  33  94 W13       29.60R WCI  26
MACOMB*        CLOUDY    35  34  94 W15       29.64R WCI  26
JACKSONVILLE*  DRIZZLE   38  35  92 W14       29.64R WCI  29
PITTSFIELD*    CLOUDY    37  33  87 W12       29.67R WCI  29
$$

ILZ028>032-037-038-041>044-048-051>054-059>061-242200-
CENTRAL ILLINOIS

CITY           SKY/WX    TMP DP  RH WIND       PRES   REMARKS
PONTIAC        CLOUDY    38  36  92 W16       29.56R FOG     WCI  28
BLOOMINGTON    CLOUDY    36  34  92 W12       29.57R FOG     WCI  28
DECATUR        CLOUDY    38  35  89 W10G22    29.60R WCI  31
PEORIA         LGT RAIN  38  33  82 W9        29.59R WCI  31
LACON*         DRIZZLE   36  33  89 W9        29.57R WCI  29
LINCOLN*       DRIZZLE   38  35  89 W8        29.60R WCI  32
SPRINGFIELD    CLOUDY    38  34  85 W15       29.62R WCI  29
TAYLORVILLE    CLOUDY    36  34  93 W13       29.63R FOG     WCI  27
$$

ILZ033-039-045-046-055>057-062-063-242200-
EAST-CENTRAL ILLINOIS

CITY           SKY/WX    TMP DP  RH WIND       PRES   REMARKS
CHAMPAIGN      LGT RAIN  38  35  89 W18       29.57R WCI  28
DANVILLE*      RAIN      37  36  96 W14       29.53R WCI  28
RANTOUL*       LGT RAIN  39  37  93 W14       29.55R WCI  31
MATTOON        LGT RAIN  38  36  92 W15G24    29.60R WCI  29
PARIS*         CLOUDY    38  37  94 W16       29.58R WCI  29
$$

ILZ079-100>102-242200-
SOUTHWEST ILLINOIS

CITY           SKY/WX    TMP DP  RH WIND       PRES   REMARKS
ALTON          CLOUDY    37  36  93 W15       29.67R FOG     WCI  28
BELLEVILLE     PTSUNNY   39  37  93 W12       29.68R WCI  32
CAHOKIA*       CLOUDY    39  35  86 W12       29.69R WCI  32
SPARTA*        CLOUDY    38  35  87 W10G17    29.70R WCI  32
$$

ILZ064>066-069>071-074>076-080>082-084>086-088>090-092>094-242200-
SOUTH-CENTRAL ILLINOIS

CITY           SKY/WX    TMP DP  RH WIND       PRES   REMARKS
CARBONDALE     CLOUDY    41  34  76 W7        29.70R
CAIRO*         CLOUDY    44  38  78 SW8       29.73R
EFFINGHAM*     CLOUDY    39  34  83 SW10G17   29.64R WCI  32
MARION         CLOUDY    41  37  87 W9        29.70R
MT. VERNON     CLOUDY    39  34  81 W7        29.67R WCI  34
CENTRALIA*     CLOUDY    39  35  87 W15G21    29.66R FOG     WCI  30
SALEM*         CLOUDY    41  37  83 W16       29.65R
METROPOLIS*    CLOUDY    42  39  91 W8        29.72R
$$

ILZ067-068-072-073-078-083-087-091-242200-
SOUTHEAST ILLINOIS

CITY           SKY/WX    TMP DP  RH WIND       PRES   REMARKS
LAWRENCEVILLE  CLOUDY    40  37  89 W10       29.63R
FLORA*         CLOUDY    39  36  88 W10       29.65R WCI  33
FAIRFIELD*     CLOUDY    40  37  87 SW7       29.66R
HARRISBURG*    CLOUDY    40  38  91 W10       29.70R
ROBINSON*      DRIZZLE   39  37  91 W14       29.63R WCI  31
CARMI*         CLOUDY    42  39  90 W12       29.67R
$$

ABBREVIATIONS USED IN REMARKS
   TC - TEMPERATURE IN CELSIUS
  WCI - WIND CHILL INDEX
   HX - HEAT INDEX
  VSB - VISIBILITY
$$



USA.gov is the U.S. government's official web portal to all federal, state and local government web resources and services.